Location: Unspecified
(0.0000°N, 0.0000°E)
Time: 15:43:19
(UTC+00:00)

Explorer 11/Cluster Stage 4 - Pass Details

Date: 24 February 2024
Orbit: 465 x 1219 km, 28.8° (Epoch: 24 April)

Event Time Altitude Azimuth Distance (km) Brightness Sun altitude
Rises 21:21:54 0° 243° (WSW) 3,714 10.7 -46.3°
Reaches altitude 10° 21:24:26 10° 244° (WSW) 2,858 10.0 -47.0°
Enters shadow 21:26:21 21° 246° (WSW) 2,240 9.2 -47.4°
